Regional Weather Roundup
Issued by NWS

Home | Current Version | Previous Version | Text Only | Print | Product List | Glossary On
Versions: 1 2 3 4 5 6 7 8 9 10 11 12 13 14 15 16 17 18 19 20 21 22 23 24 25 26 27
000
ASUS45 KBOU 260707
RWRCO

WEATHER ROUNDUP FOR COLORADO
NATIONAL WEATHER SERVICE DENVER/BOULDER CO
100 AM MDT THU MAY 26 2016

NOTE: "FAIR" INDICATES FEW OR NO CLOUDS BELOW 12000 FEET WITH NO
SIGNIFICANT WEATHER AND/OR OBSTRUCTIONS TO VISIBILITY.

COZ001>005-013-030-031-260800-
...NORTHWEST COLORADO...

CITY           SKY/WX    TMP DP  RH WIND       PRES   REMARKS
CRAIG          FAIR      39  31  72 S5        30.07S
HAYDEN         FAIR      39  28  65 CALM      30.07S
MEEKER         FAIR      44  27  51 SE8       30.06S
MOUNT WERNER   NOT AVBL
STEAMBOAT SPGS FAIR      38  29  69 CALM      30.08S
WALDEN         FAIR      32  27  80 SE8       30.14S WCI  25
$$

COZ006>008-011-260800-
...WEST CENTRAL VALLEYS...

CITY           SKY/WX    TMP DP  RH WIND       PRES   REMARKS
GRAND JUNCTION FAIR      55  24  30 SE8       29.94S
MONTROSE       FAIR      55  20  25 SE10      30.00S
EAGLE          FAIR      41  21  45 SE5       30.08S
RIFLE          FAIR      47  28  47 E3        30.00S
DELTA          FAIR      59  16  18 NE8       29.95F
NUCLA          FAIR      54  21  28 MISG      30.01F
$$

COZ017>023-064>068-260800-
...SOUTHWEST COLORADO...

CITY           SKY/WX    TMP DP  RH WIND       PRES   REMARKS
DURANGO        FAIR      46  25  43 N5        30.05S
CORTEZ         FAIR      44  26  49 E8        30.01S
PAGOSA SPRINGS CLOUDY    55  21  27 E5        30.14S
TELLURIDE      MOCLDY    43  19  38 SE5       30.16F
WOLF CREEK PAS CLOUDY    30  21  69 SW16G23   30.32F WCI  19
$$

COZ009-010-012-014-032>034-037-058>063-260800-
...CENTRAL COLORADO...

CITY           SKY/WX    TMP DP  RH WIND       PRES   REMARKS
ASPEN          FAIR      40  18  41 SW9       30.09F
BUENA VISTA    FAIR      40  13  33 N6        30.12F
COPPER MTN     NOT AVBL
BERTHOUD PASS  FAIR      32  21  64 E12       30.31F WCI  23
COTTONWOOD PAS FAIR      46   3  17 SW12      30.19F
GUNNISON       FAIR      39  19  45 N5        30.13S
KREMMLING      FAIR      36  23  60 CALM      30.12S
LEADVILLE      FAIR      30   9  41 E5        30.18F WCI  25
MONARCH PASS   FAIR      36   5  27 MISG      30.39F
SALIDA         FAIR      46  17  31 W7        30.17F
SUNLIGHT       FAIR      39  16  38 CALM      30.25F
WILKERSON PASS FAIR      37   0  20 W3        30.28F
$$

COZ069>075-260800-
...SAN LUIS VALLEY/SANGRE DE CRISTO MOUNTAINS...

CITY           SKY/WX    TMP DP  RH WIND       PRES   REMARKS
ALAMOSA        MOCLDY    45  31  58 SE5       30.11R
LA VETA PASS   FAIR      43  21  42 S8        30.21F
SAGUACHE       FAIR      45  19  36 NW15      30.11F
$$

COZ035-036-038>040-260800-
...NORTHERN COLORADO FRONT RANGE...

CITY           SKY/WX    TMP DP  RH WIND       PRES   REMARKS
DENVER INTL AP MOCLDY    50  42  74 N9        30.02F
DMNS CITY PARK   N/A     53  41  63 N9        30.03S
AURORA         MOCLDY    47  42  82 N3        30.04R
FRONT RANGE AP NOT AVBL
ERIE MUNI ARPT FAIR      49  43  79 S3        30.03S
BOULDER MUN AP FAIR      54  43  66 SW5       30.04S
CENTENNIAL     FAIR      50  41  71 NW9       30.04R
BROOMFIELD     FAIR      52  41  66 NW7       30.06S
FORT COLLINS   FAIR      52  39  62 CALM      30.03F
LONGMONT       FAIR      53  44  71 CALM      30.04F
$$

COZ041-046-047-076>085-087-088-260800-
...PIKES PEAK/PALMER DIVIDE AND SOUTHERN FOOTHILLS...

CITY           SKY/WX    TMP DP  RH WIND       PRES   REMARKS
COLO. SPRINGS  FAIR      50  36  58 NW10      30.02S
A. F. ACADEMY  FAIR      46  32  57 N10       30.03S
SCHRIEVER AFB  NOT AVBL
ELLICOTT       FAIR     N/A N/A N/A E15       29.99R
FALCON         FAIR      47  37  67 N10       30.05F
FORT CARSON    FAIR      53  29  38 N15       29.97F
LIMON          FAIR      48  42  80 NE13      29.98S
MONUMENT HILL  FAIR      45  34  65 E3        30.08F
TRINIDAD       FAIR      51  18  27 W14       29.98S
$$

COZ042>045-048>051-090-091-260800-
...NORTHEAST COLORADO...

CITY           SKY/WX    TMP DP  RH WIND       PRES   REMARKS
GREELEY ARPT   FAIR      48  39  71 NW7       30.02R
AKRON          FAIR      54  41  61 NE10      29.98S
BURLINGTON     CLOUDY    52  44  74 N5        29.95R
WRAY           FAIR      50  46  87 CALM      29.94F
STERLING       FAIR      52  48  87 CALM      29.95F
HOLYOKE        NOT AVBL
FORT MORGAN    CLOUDY    56  39  52 N6G23     29.96F
$$

COZ086-089-092>099-260800-
...SOUTHEAST COLORADO...

CITY           SKY/WX    TMP DP  RH WIND       PRES   REMARKS
PUEBLO         FAIR      61  19  19 NW3       29.92R
LA JUNTA       FAIR      57  35  43 N10       29.89R
LAMAR          FAIR      47  39  74 E6        29.82R
SPRINGFIELD      N/A     62  19  19 W12       29.88F
$$




USA.gov is the U.S. government's official web portal to all federal, state and local government web resources and services.